Regional Weather Roundup
Issued by NWS

Home | Current Version | Previous Version | Text Only | Print | Product List | Glossary Off
Versions: 1 2 3 4 5 6 7 8 9 10 11 12 13 14 15 16 17 18 19 20 21 22 23 24 25 26 27 28 29 30 31 32 33 34 35 36 37 38 39 40 41 42 43 44 45 46 47 48 49 50

000
ASUS43 KIND 121609
RWRIN

WEATHER ROUNDUP FOR INDIANA
NATIONAL WEATHER SERVICE INDIANAPOLIS IN
1200 PM EDT SAT JUL 12 2014

NOTE: "FAIR" INDICATES FEW OR NO CLOUDS BELOW 12,000 FEET WITH NO
SIGNIFICANT WEATHER AND/OR OBSTRUCTIONS TO VISIBILITY.

* - STATION DOES NOT REPORT WEATHER SUCH AS PRECIPITATION OR FOG.

+ - STATION NOT QUALITY CONTROLLED BY THE NATIONAL WEATHER SERVICE.
    USE DATA WITH CAUTION...ESPECIALLY DEWPOINT AND RELATIVE
    HUMIDITY OBSERVATIONS.

INZ001>003-010>013-019-020-121700-
NORTHWEST INDIANA

CITY           SKY/WX    TMP DP  RH WIND       PRES   REMARKS
GARY /AIRPORT/ LGT RAIN  72  70  94 S9        30.06S
KNOX *+        CLOUDY    70  67  88 S9        30.11R
LA PORTE +     RAIN      69  68  97 S6        30.12R
MICHIGAN CITY+ LGT RAIN  70  68  94 S8        30.10R
MONTICELLO +   CLOUDY    71  69  93 SW9       30.16R
RENSSELAER +   LGT RAIN  70  70 100 S7        30.12F
VALPARAISO     LGT RAIN  70  69  97 S9        30.10R FOG

$$

LMZ046-743>745-121700-
SOUTHERN LAKE MICHIGAN

STATION/POSITION TIME  TEMP WIND        PRES
                       AIR  DIR/SP/G
                 (UTC) (F)  (DEG/KT/KT) (MB)
BURNS HARBOR     1600   70  220/  9/ 20 1019.3
MICHIGAN CITY    1500   71  170/ 12/ 17   N/A

$$

INZ004-005-014>016-021>024-121700-
NORTH CENTRAL INDIANA

CITY           SKY/WX    TMP DP  RH WIND       PRES   REMARKS
ELKHART        PTSUNNY   81  66  61 SW12      30.10R
GOSHEN         PTSUNNY   81  67  62 S14G23    30.11R
LOGANSPORT +   LGT RAIN  72  64  78 SW13      30.16R
ROCHESTER +    CLOUDY    75  68  78 SW12      30.14R
SOUTH BEND     CLOUDY    76  66  71 S16G23    30.11R
WARSAW +       CLOUDY    79  66  65 SW8       30.12R

$$

INZ006>009-017-018-025>027-121700-
NORTHEAST INDIANA

CITY           SKY/WX    TMP DP  RH WIND       PRES   REMARKS
ANGOLA *+      SUNNY     82  66  57 S6        30.12S
AUBURN +       PTSUNNY   82  61  47 S7        30.13R
FORT WAYNE     CLOUDY    81  65  58 S13       30.13F
HUNTINGTON +   PTSUNNY   82  67  60 SW13      30.13R

$$

INZ028-029-035-036-043>045-051>053-121700-
WEST CENTRAL INDIANA

CITY           SKY/WX    TMP DP  RH WIND       PRES   REMARKS
GREENCASTLE +  LGT RAIN  70  68  94 CALM      30.18R
LAFAYETTE      RAIN      70  69  97 SW12      30.16R FOG
TERRE HAUTE    LGT RAIN  71  68  90 CALM      30.17R FOG

$$

INZ030>032-037>040-046>048-054>057-064-065-121700-
CENTRAL INDIANA

CITY           SKY/WX    TMP DP  RH WIND       PRES   REMARKS
ANDERSON       PTSUNNY   77  63  61 S12       30.17
CP ATTERBURY + CLOUDY    79  64  61 SW6       30.17R
COLUMBUS       PTSUNNY   79  66  65 SW9       30.17S
GREENWOOD *+   CLOUDY    81  68  65 SW6       30.17
INDIANAPOLIS   CLOUDY    75  65  70 SW10      30.16R
-EAGLE CREEK   CLOUDY    75  64  68 SW7       30.15S
KOKOMO *+      CLOUDY    77  64  65 SW15G21   30.15R
MARION +       CLOUDY    78  64  62 SW12      30.15R
MT COMFORT *+  CLOUDY    79  70  73 SW9       30.17R
SHELBYVILLE    CLOUDY    82  67  60 SW12      30.16S
ZIONSVILLE +   CLOUDY    76  65  66 SW12G17   30.16R

$$

INZ033-034-041-042-049-050-058-059-121700-
EAST CENTRAL INDIANA

CITY           SKY/WX    TMP DP  RH WIND       PRES   REMARKS
MUNCIE         PTSUNNY   80  64  58 SW10G18   30.15S

$$

INZ060-061-067>069-081>083-085>088-121700-
SOUTHWEST INDIANA

CITY           SKY/WX    TMP DP  RH WIND       PRES   REMARKS
EVANSVILLE     CLOUDY    80  67  64 S6        30.16F
HUNTINGBURG *+ CLOUDY    82  68  61 SW8       30.18S
WASHINGTON +   LGT RAIN  73  70  91 SW5       30.17F

$$

INZ062-063-066-070>080-084-089>092-121700-
SOUTH CENTRAL AND SOUTHEAST INDIANA

CITY           SKY/WX    TMP DP  RH WIND       PRES   REMARKS
BLOOMINGTON    CLOUDY    77  66  68 SW13      30.17F

$$



USA.gov is the U.S. government's official web portal to all federal, state and local government web resources and services.